Content
SEND FEEDBACK

Daily
Averages
Monthly
Summary
Canada

PRINCE RUPERT, BRITISH COLUMBIA


Home > North America > Canada > British Columbia
Elevation: 111 feet     Latitude: 54 17N     Longitude: 130 27W

WEATHER
 
SELECT A DAY
Number of Records: 351,012;   Date Range: 1/1/95 - 8/31/14
 
SHARE

PRINT THIS DATA

[ ← Previous Day ]
WEATHER ALMANAC - JULY 1, 2013
[ Next Day → ]
[ °C ]   °F
We're sorry. There is no daily almanac available for Prince Rupert, British Columbia on July 1, 2013.
WEATHER BY HOUR - JULY 1, 2013
[ °C ]   °F
Local TimeTemperatureDewpointHumidityBarometerVisibilityWind DirectionWind SpeedGust SpeedPrecipitationEventsConditions
12:13 AM57.2 °F55.4 °F94 %30.02 in9.0 miNNW (330°)4.6 mphOvercast
12:21 AM57.2 °F55.4 °F94 %30.01 in9.0 miNNW (340°)4.6 mphMostly Cloudy
12:22 AM57.2 °F55.4 °F94 %30.01 in9.0 miNNW (340°)3.5 mphMostly Cloudy
1:00 AM57.2 °F55.4 °F94 %30.01 in9.0 miVariable2.3 mphOvercast
2:00 AM57.2 °F57.2 °F100 %30.01 in9.0 miNNE (30°)3.5 mphOvercast
2:19 AM57.2 °F57.2 °F100 %30.01 in9.0 miVariable2.3 mphOvercast
3:00 AM57.2 °F55.4 °F94 %30.01 in9.0 miVariable2.3 mphOvercast
3:12 AM57.2 °F55.4 °F94 %30.01 in9.0 miWest (260°)4.6 mphOvercast
3:23 AM55.4 °F55.4 °F100 %30.01 in4.0 miWest (280°)4.6 mphOvercast
3:26 AM55.4 °F55.4 °F100 %30.01 in2.2 miWest (280°)3.5 mphOvercast
3:29 AM55.4 °F55.4 °F100 %30.01 in1.8 miWest (280°)3.5 mphOvercast
4:00 AM55.4 °F55.4 °F100 %30.01 in0.8 miCalmMist
5:00 AM55.4 °F55.4 °F100 %30.02 in1.2 miWNW (290°)4.6 mphOvercast
5:11 AM55.4 °F55.4 °F100 %30.02 in2.0 miWNW (290°)4.6 mphOvercast
5:13 AM55.4 °F55.4 °F100 %30.02 in3.0 miWNW (300°)4.6 mphOvercast
5:32 AM55.4 °F55.4 °F100 %30.01 in6.0 miWNW (300°)3.5 mphOvercast
6:00 AM55.4 °F55.4 °F100 %30.01 in9.0 miVariable2.3 mphOvercast
6:06 AM55.4 °F55.4 °F100 %30.01 in5.0 miVariable2.3 mphOvercast
6:11 AM55.4 °F55.4 °F100 %30.01 in2.5 miVariable2.3 mphOvercast
6:18 AM55.4 °F55.4 °F100 %30.02 in1.8 miCalmOvercast
6:51 AM55.4 °F55.4 °F100 %30.02 in0.4 miWest (280°)3.5 mphFogFog
7:00 AM55.4 °F55.4 °F100 %30.02 in0.4 miWNW (290°)3.5 mphFogFog
7:02 AM55.4 °F55.4 °F100 %30.02 in0.5 miWNW (290°)3.5 mphFogFog
7:12 AM55.4 °F55.4 °F100 %30.02 in2.0 miVariable2.3 mphOvercast
7:14 AM55.4 °F55.4 °F100 %30.02 in3.0 miNW (310°)3.5 mphOvercast
7:20 AM55.4 °F55.4 °F100 %30.02 in6.0 miWest (280°)3.5 mphOvercast
8:00 AM55.4 °F55.4 °F100 %30.02 in7.0 miWest (270°)3.5 mphOvercast
8:56 AM55.4 °F55.4 °F100 %30.04 in4.0 miSW (230°)3.5 mphOvercast
9:00 AM55.4 °F53.6 °F94 %30.04 in2.5 miVariable2.3 mphOvercast
9:03 AM55.4 °F53.6 °F94 %30.04 in1.8 miSW (230°)2.3 mphOvercast
9:21 AM55.4 °F55.4 °F100 %30.04 in0.6 miSW (230°)2.3 mphRainLight Rain
9:39 AM55.4 °F55.4 °F100 %30.04 in0.8 miWNW (290°)5.8 mphMist
9:40 AM55.4 °F55.4 °F100 %30.04 in1.0 miWest (280°)5.8 mphRainLight Rain
10:00 AM55.4 °F53.6 °F94 %30.04 in1.0 miWest (280°)5.8 mphRainLight Rain
10:38 AM55.4 °F55.4 °F100 %30.05 in0.8 miWest (280°)5.8 mphOvercast
10:40 AM55.4 °F55.4 °F100 %30.05 in0.8 miWest (280°)4.6 mphRainLight Rain
11:00 AM55.4 °F55.4 °F100 %30.06 in0.8 miWest (280°)3.5 mphRainLight Rain
11:23 AM55.4 °F55.4 °F100 %30.06 in1.0 miWNW (290°)4.6 mphRainLight Rain
11:36 AM55.4 °F55.4 °F100 %30.06 in2.0 miWest (280°)4.6 mphOvercast
11:37 AM55.4 °F55.4 °F100 %30.07 in2.0 miWNW (290°)4.6 mphRainLight Rain
11:42 AM55.4 °F55.4 °F100 %30.07 in3.0 miWest (280°)3.5 mphRainLight Rain
11:46 AM55.4 °F55.4 °F100 %30.07 in5.0 miWNW (300°)5.8 mphRainLight Rain
11:47 AM55.4 °F55.4 °F100 %30.07 in6.0 miWNW (290°)4.6 mphRainLight Rain
11:51 AM55.4 °F53.6 °F94 %30.07 in9.0 miWNW (290°)8.1 mphOvercast
12:00 PM55.4 °F53.6 °F94 %30.07 in9.0 miWest (260°)5.8 mphOvercast
12:35 PM55.4 °F53.6 °F94 %30.08 in7.0 miWNW (290°)5.8 mphOvercast
12:38 PM55.4 °F53.6 °F94 %30.08 in7.0 miWNW (300°)6.9 mphOvercast
12:39 PM55.4 °F53.6 °F94 %30.09 in7.0 miWNW (300°)5.8 mphOvercast
12:42 PM55.4 °F55.4 °F100 %30.09 in9.0 miNW (310°)4.6 mphOvercast
1:00 PM57.2 °F53.6 °F88 %30.09 in9.0 miNNW (330°)6.9 mphOvercast
1:11 PM57.2 °F55.4 °F94 %30.09 in9.0 miNNW (330°)5.8 mphOvercast
2:00 PM60.8 °F55.4 °F82 %30.09 in9.0 miNW (320°)8.1 mphOvercast
3:00 PM60.8 °F55.4 °F82 %30.09 in9.0 miWest (270°)4.6 mphOvercast
4:00 PM62.6 °F53.6 °F72 %30.08 in9.0 miWest (270°)4.6 mphOvercast
4:01 PM62.6 °F53.6 °F72 %30.08 in9.0 miWest (260°)4.6 mphOvercast
5:00 PM62.6 °F55.4 °F77 %30.07 in9.0 miWest (260°)4.6 mphClear
6:00 PM62.6 °F53.6 °F72 %30.07 in9.0 miNNW (330°)6.9 mphClear
7:00 PM62.6 °F55.4 °F77 %30.06 in9.0 miNW (320°)5.8 mphClear
8:00 PM60.8 °F53.6 °F77 %30.06 in9.0 miWNW (290°)5.8 mphClear
9:00 PM59.0 °F51.8 °F77 %30.05 in9.0 miNW (320°)6.9 mphClear
10:00 PM57.2 °F51.8 °F82 %30.06 in9.0 miNW (310°)5.8 mphClear
11:00 PM55.4 °F51.8 °F88 %30.06 in9.0 miNNW (330°)4.6 mphClear
Hourly data recorded from CYPR, located miles away from Prince Rupert, British Columbia







STORIES FROM OUR PARTNERS